This demonstration page uses our WeatherBlox Daily Observations layout. Learn more.

39.51506, -84.39828

Hourly Observations for June 7, 2020

Temp ( °F °C ) Dew Point ( °F °C ) Humidity (%) Winds ( mph kmh ) Pressure ( in mb ) Visibility ( mi km ) Precip ( " mm )
12:15 am 00:15 Clear 71 21.5 49 9.3 46 46 N 6 9 29.99 1016 10 16.0934 0 0
12:35 am 00:35 Clear 70 21 49 9.4 48 48 N 6 9 30 1016 10 16.0934 0 0
12:55 am 00:55 Clear 69 20.8 49 9.4 48 48 NNE 6 9 30 1016 10 16.0934 0 0
1:15 am 01:15 Clear 68 20.1 49 9.4 50 50 N 5 7 30 1016 10 16.0934 0 0
1:35 am 01:35 Clear 67 19.6 49 9.6 53 53 NNE 6 9 30.01 1016 10 16.0934 0 0
1:55 am 01:55 Clear 67 19.7 49 9.5 52 52 NNE 6 9 30.01 1016 10 16.0934 0 0
2:15 am 02:15 Clear 66 19 50 10.1 56 56 Calm 30.02 1016 10 16.0934 0 0
2:35 am 02:35 Clear 66 18.7 50 9.9 57 57 NNE 5 7 30.02 1017 10 16.0934 0 0
2:55 am 02:55 Clear 65 18.4 51 10.3 59 59 NE 6 9 30.02 1017 10 16.0934 0 0
3:15 am 03:15 Clear 65 18.5 51 10.5 60 60 NNE 3 6 30.03 1017 10 16.0934 0 0
3:35 am 03:35 Clear 64 17.9 51 10.8 63 63 NE 3 6 30.03 1017 10 16.0934 0 0
3:55 am 03:55 Clear 64 17.5 52 11.1 66 66 NE 5 7 30.03 1017 10 16.0934 0 0
4:15 am 04:15 Clear 63 17 52 11.2 69 69 NNE 5 7 30.03 1017 10 16.0934 0 0
4:35 am 04:35 Clear 62 16.4 53 11.5 73 73 NNE 5 7 30.03 1017 10 16.0934 0 0
4:55 am 04:55 Clear 62 16.4 53 11.7 74 74 NE 5 7 30.03 1017 10 16.0934 0 0
5:15 am 05:15 Clear 61 16 53 11.9 77 77 NNE 3 6 30.03 1017 10 16.0934 0 0
5:35 am 05:35 Clear 60 15.8 54 12.1 79 79 Calm 30.04 1017 10 16.0934 0 0
5:55 am 05:55 Clear 59 15.1 54 12.2 83 83 Calm 30.06 1018 10 16.0934 0 0
6:15 am 06:15 Sunny 59 15.1 54 12.3 83 83 Calm 30.07 1018 10 16.0934 0 0
6:35 am 06:35 Sunny 59 15 54 12.4 85 85 NNE 5 7 30.08 1019 10 16.0934 0 0
6:55 am 06:55 Sunny 60 15.6 55 12.8 84 84 NNE 5 7 30.08 1018 10 16.0934 0 0
7:15 am 07:15 Sunny 62 16.6 56 13.1 80 80 NNE 5 7 30.07 1018 10 16.0934 0 0
7:35 am 07:35 Sunny 63 17.2 56 13.2 77 77 Calm 30.08 1019 10 16.0934 0 0
7:55 am 07:55 Sunny 64 17.6 56 13.2 76 76 NE 3 6 30.07 1018 10 16.0934 0 0
8:15 am 08:15 Sunny 66 18.7 56 13.3 71 71 NE 7 11 30.07 1018 10 16.0934 0 0
8:35 am 08:35 Sunny 67 19.5 56 13.1 67 67 ENE 3 6 30.08 1018 10 16.0934 0 0
8:55 am 08:55 Sunny 69 20.4 54 12.3 60 60 E 5 7 30.07 1018 10 16.0934 0 0
9:15 am 09:15 Sunny 70 20.9 54 12.1 57 57 E 8 13 30.07 1018 10 16.0934 0 0
9:35 am 09:35 Sunny 71 21.4 54 12.4 57 57 E 10 17 30.07 1018 10 16.0934 0 0
9:55 am 09:55 Sunny 71 21.9 54 12.3 55 55 ESE 6 9 30.07 1018 10 16.0934 0 0
10:15 am 10:15 Sunny 73 22.6 55 12.8 54 54 ESE 7 11 30.07 1018 10 16.0934 0 0
10:35 am 10:35 Sunny 73 22.8 55 12.9 54 54 E 8 13 30.07 1018 10 16.0934 0 0
10:55 am 10:55 Sunny 74 23.5 56 13.2 53 53 E 9 15 30.07 1018 10 16.0934 0 0
11:15 am 11:15 Sunny 75 23.9 57 13.8 53 53 E 6 9 30.08 1018 10 16.0934 0 0
11:35 am 11:35 Sunny 75 24 56 13.4 52 52 ENE 7 11 30.09 1019 10 16.0934 0 0
11:55 am 11:55 Sunny 76 24.6 56 13.3 49 49 NE 5 7 30.07 1018 10 16.0934 0 0
12:15 pm 12:15 Sunny 77 24.8 56 13.2 49 49 ENE 10 17 30.07 1018 10 16.0934 0 0
12:35 pm 12:35 Sunny 77 25 56 13.2 48 48 SE 7 11 30.07 1018 10 16.0934 0 0
12:55 pm 12:55 Sunny 78 25.5 56 13.5 47 47 E 8 13 30.06 1018 10 16.0934 0 0
1:15 pm 13:15 Sunny 78 25.5 55 12.9 46 46 NE 9 15 30.06 1018 10 16.0934 0 0
1:35 pm 13:35 Sunny 79 25.9 55 12.5 43 43 ESE 6 9 30.05 1018 10 16.0934 0 0
1:55 pm 13:55 Sunny 78 25.8 55 12.7 44 44 NE 5 7 30.06 1018 10 16.0934 0 0
2:15 pm 14:15 Sunny 79 26.2 53 11.8 41 41 ESE 5 7 30.05 1018 10 16.0934 0 0
2:35 pm 14:35 Sunny 80 26.4 54 12.3 42 42 ENE 3 6 30.05 1018 10 16.0934 0 0
2:55 pm 14:55 Sunny 80 26.9 54 12.2 40 40 E 6 9 30.04 1017 10 16.0934 0 0
3:15 pm 15:15 Sunny 80 26.9 57 13.7 44 44 E 7 11 30.04 1017 10 16.0934 0 0
3:35 pm 15:35 Sunny 81 27.1 55 13 42 42 E 5 7 30.02 1017 10 16.0934 0 0
3:55 pm 15:55 Sunny 81 27.3 56 13.6 43 43 ENE 9 15 30.02 1017 10 16.0934 0 0
4:15 pm 16:15 Sunny 81 27.3 55 12.8 41 41 NNE 6 9 30.02 1017 10 16.0934 0 0
4:35 pm 16:35 Sunny 81 27.3 53 11.4 37 37 ENE 3 6 30.01 1016 10 16.0934 0 0
4:55 pm 16:55 Sunny 82 27.5 54 12.1 38 38 N 3 6 30.01 1016 10 16.0934 0 0
5:15 pm 17:15 Sunny 82 28 54 12 37 37 E 7 11 30.01 1016 10 16.0934 0 0
5:35 pm 17:35 Sunny 81 27.4 52 10.9 36 36 N 6 9 30.01 1016 10 16.0934 0 0
5:55 pm 17:55 Sunny 81 27.1 52 10.9 36 36 NNE 7 11 30 1016 10 16.0934 0 0
6:15 pm 18:15 Sunny 78 25.8 52 11 40 40 NE 5 7 30 1016 10 16.0934 0 0
6:35 pm 18:35 Sunny 80 26.7 54 12.4 41 41 NE 6 9 29.99 1016 10 16.0934 0 0
6:55 pm 18:55 Sunny 80 26.9 52 11.1 37 37 ENE 7 11 29.99 1016 10 16.0934 0 0
7:15 pm 19:15 Sunny 79 26.3 54 12.4 42 42 ENE 7 11 29.99 1016 10 16.0934 0 0
7:35 pm 19:35 Sunny 79 25.9 52 11.3 40 40 ENE 8 13 30 1016 10 16.0934 0 0
7:55 pm 19:55 Sunny 78 25.6 52 11.1 40 40 E 7 11 30 1016 10 16.0934 0 0
8:15 pm 20:15 Sunny 76 24.3 56 13.2 50 50 E 6 9 30 1016 10 16.0934 0 0
8:35 pm 20:35 Sunny 74 23.2 55 12.8 52 52 E 5 7 30.02 1016 10 16.0934 0 0
8:55 pm 20:55 Sunny 71 21.6 58 14.5 64 64 Calm 30.02 1017 10 16.0934 0 0
9:15 pm 21:15 Clear 68 19.9 59 14.9 73 73 Calm 30.01 1016 10 16.0934 0 0
9:35 pm 21:35 Clear 65 18.6 57 13.7 73 73 NNE 5 7 30.02 1017 10 16.0934 0 0
9:55 pm 21:55 Clear 65 18.6 56 13.6 73 73 Calm 30.02 1017 10 16.0934 0 0
10:15 pm 22:15 Clear 65 18.3 57 14 76 76 Calm 30.02 1017 10 16.0934 0 0
10:35 pm 22:35 Clear 63 17.4 57 14 81 81 Calm 30.03 1017 10 16.0934 0 0
10:55 pm 22:55 Clear 63 17.2 58 14.3 83 83 Calm 30.03 1017 10 16.0934 0 0
11:15 pm 23:15 Clear 63 17 57 14 83 83 Calm 30.04 1017 10 16.0934 0 0
11:35 pm 23:35 Clear 61 16.2 56 13.2 83 83 N 3 6 30.04 1017 10 16.0934 0 0
11:55 pm 23:55 Clear 63 17 55 13 77 77 Calm 30.04 1017 10 16.0934 0 0

Powered by AerisWeather